FW6147 Weather Reports


time (UTC)temp
C
wind
direction
speed
KPH
gust
KPH
rain 1hr
cm
rain 24hr
cm
rain mn
cm
humidity
%
barometer
mb
20260507092553 8 0 0.0 0.0 0.00 0.00 0.00 56 1018.8
20260507092056 8 0 0.0 0.0 0.00 0.00 0.00 56 1018.9
20260507091556 8 0 0.0 0.0 0.00 0.00 0.00 56 1019.0
20260507091100 8 0 0.0 0.0 0.00 0.00 0.00 55 1019.0
20260507090557 8 0 0.0 0.0 0.00 0.00 0.00 54 1019.0
20260507090054 8 0 0.0 4.8 0.00 0.00 0.00 54 1019.1
20260507085626 8 0 0.0 6.4 0.00 0.00 0.00 53 1019.1
20260507085056 9 0 0.0 6.4 0.00 0.00 0.00 51 1019.1
20260507084556 9 0 0.0 0.0 0.00 0.00 0.00 51 1019.0
20260507084056 9 0 0.0 0.0 0.00 0.00 0.00 51 1019.2
20260507083554 9 0 0.0 0.0 0.00 0.00 0.00 51 1019.1
20260507083053 9 0 0.0 0.0 0.00 0.00 0.00 50 1019.2
20260507082551 10 0 0.0 0.0 0.00 0.00 0.00 49 1019.3
20260507082057 10 0 0.0 0.0 0.00 0.00 0.00 48 1019.4
20260507081554 10 0 0.0 0.0 0.00 0.00 0.00 45 1019.2
20260507081055 11 0 0.0 0.0 0.00 0.00 0.00 44 1019.3
20260507080552 11 0 0.0 0.0 0.00 0.00 0.00 42 1019.4
20260507080111 11 0 0.0 0.0 0.00 0.00 0.00 40 1019.3
20260507075556 12 0 0.0 0.0 0.00 0.00 0.00 40 1019.3
20260507075056 12 0 0.0 0.0 0.00 0.00 0.00 39 1019.4
20260507074554 12 0 0.0 0.0 0.00 0.00 0.00 39 1019.3
20260507074055 11 0 0.0 0.0 0.00 0.00 0.00 40 1019.4
20260507073553 11 0 0.0 0.0 0.00 0.00 0.00 42 1019.3
20260507073054 11 0 0.0 0.0 0.00 0.00 0.00 42 1019.3
20260507072555 11 0 0.0 0.0 0.00 0.00 0.00 43 1019.4
20260507072054 11 0 0.0 4.8 0.00 0.00 0.00 44 1019.4
20260507071609 11 0 0.0 4.8 0.00 0.00 0.00 44 1019.4
20260507071058 11 0 0.0 4.8 0.00 0.00 0.00 44 1019.4
20260507070556 11 0 0.0 0.0 0.00 0.00 0.00 44 1019.3
20260507070055 11 0 0.0 4.8 0.00 0.00 0.00 43 1019.3
20260507065556 11 0 0.0 4.8 0.00 0.00 0.00 43 1019.3
20260507065055 11 236 0.0 8.0 0.00 0.00 0.00 43 1019.3
20260507064555 11 0 0.0 8.0 0.00 0.00 0.00 44 1019.3
20260507064056 11 236 4.8 8.0 0.00 0.00 0.00 42 1019.4
20260507063556 11 0 0.0 6.4 0.00 0.00 0.00 44 1019.3
20260507063056 11 0 0.0 8.0 0.00 0.00 0.00 44 1019.3
20260507062555 11 236 4.8 8.0 0.00 0.00 0.00 42 1019.3
20260507062055 11 236 0.0 6.4 0.00 0.00 0.00 42 1019.2
20260507061558 11 0 0.0 0.0 0.00 0.00 0.00 43 1019.5
20260507061055 11 0 0.0 0.0 0.00 0.00 0.00 44 1019.4
20260507060555 11 0 0.0 0.0 0.00 0.00 0.00 45 1019.3
20260507060057 11 0 0.0 0.0 0.00 0.00 0.00 46 1019.5
20260507055555 11 0 0.0 6.4 0.00 0.00 0.00 46 1019.5
20260507055052 11 0 3.2 6.4 0.00 0.00 0.00 45 1019.6
20260507054554 11 0 0.0 0.0 0.00 0.00 0.00 45 1019.5
20260507054055 11 0 0.0 0.0 0.00 0.00 0.00 46 1019.7
20260507053556 11 0 0.0 0.0 0.00 0.00 0.00 45 1019.5
20260507053120 11 0 0.0 0.0 0.00 0.00 0.00 45 1019.5
20260507052556 11 0 0.0 0.0 0.00 0.00 0.00 42 1019.5
20260507052054 11 0 0.0 0.0 0.00 0.00 0.00 43 1019.4
20260507051605 11 0 0.0 0.0 0.00 0.00 0.00 44 1019.5
20260507051055 12 0 0.0 0.0 0.00 0.00 0.00 43 1019.5
20260507050555 12 0 0.0 0.0 0.00 0.00 0.00 41 1019.5
20260507050054 12 0 0.0 0.0 0.00 0.00 0.00 40 1019.4
20260507045555 12 0 0.0 0.0 0.00 0.00 0.00 39 1019.3
20260507045052 12 0 0.0 0.0 0.00 0.00 0.00 40 1019.2
20260507044557 12 0 0.0 0.0 0.00 0.00 0.00 41 1019.1
20260507044052 12 0 0.0 0.0 0.00 0.00 0.00 41 1019.2
20260507043555 11 0 0.0 1.6 0.00 0.00 0.00 44 1019.1
20260507043055 12 0 0.0 1.6 0.00 0.00 0.00 43 1019.0
20260507042554 12 0 0.0 0.0 0.00 0.00 0.00 44 1018.9
20260507042059 12 0 0.0 0.0 0.00 0.00 0.00 43 1018.9
20260507041557 12 0 0.0 0.0 0.00 0.00 0.00 43 1018.8
20260507041056 12 0 0.0 0.0 0.00 0.00 0.00 42 1018.8
20260507040555 12 0 0.0 0.0 0.00 0.00 0.00 41 1018.8
20260507040100 12 0 0.0 0.0 0.00 0.00 0.00 40 1018.6
20260507035554 12 0 0.0 0.0 0.00 0.00 0.00 39 1018.6
20260507035056 12 0 0.0 0.0 0.00 0.00 0.00 39 1018.7
20260507034556 13 0 0.0 0.0 0.00 0.00 0.00 39 1018.5
20260507034055 13 0 0.0 0.0 0.00 0.00 0.00 38 1018.5
20260507033555 13 0 0.0 6.4 0.00 0.00 0.00 37 1018.5
20260507033055 13 0 1.6 6.4 0.00 0.00 0.00 35 1018.4
20260507032555 14 243 0.0 0.0 0.00 0.00 0.00 34 1018.4
20260507032052 14 0 0.0 0.0 0.00 0.00 0.00 33 1018.5
20260507031556 15 0 0.0 0.0 0.00 0.00 0.00 31 1018.4
20260507031055 15 0 0.0 0.0 0.00 0.00 0.00 30 1018.4
20260507030555 15 0 0.0 0.0 0.00 0.00 0.00 30 1018.3
20260507030057 16 0 0.0 0.0 0.00 0.00 0.00 29 1018.3
20260507025551 16 0 0.0 0.0 0.00 0.00 0.00 29 1018.3
20260507025056 16 0 0.0 0.0 0.00 0.00 0.00 30 1018.2
20260507024603 16 0 0.0 0.0 0.00 0.00 0.00 27 1018.1
20260507024055 17 0 0.0 0.0 0.00 0.00 0.00 27 1018.0
20260507023551 17 0 0.0 0.0 0.00 0.00 0.00 29 1018.0
20260507023054 17 0 0.0 0.0 0.00 0.00 0.00 28 1017.8
20260507022552 17 0 0.0 0.0 0.00 0.00 0.00 27 1017.7
20260507022056 17 0 0.0 0.0 0.00 0.00 0.00 27 1017.7
20260507021555 18 0 0.0 0.0 0.00 0.00 0.00 28 1017.6
20260507021051 18 0 0.0 0.0 0.00 0.00 0.00 27 1017.7
20260507020604 18 0 0.0 0.0 0.00 0.00 0.00 26 1017.6
20260507020057 18 0 0.0 0.0 0.00 0.00 0.00 24 1017.6
20260507015556 19 0 0.0 0.0 0.00 0.00 0.00 24 1017.5
20260507015055 20 0 0.0 0.0 0.00 0.00 0.00 22 1017.4
20260507014626 20 0 0.0 9.7 0.00 0.00 0.00 22 1017.4
20260507014054 20 0 0.0 9.7 0.00 0.00 0.00 22 1017.5
20260507013558 20 0 1.6 9.7 0.00 0.00 0.00 20 1017.4
20260507013059 20 342 0.0 8.0 0.00 0.00 0.00 20 1017.4
20260507012558 21 0 1.6 11.3 0.00 0.00 0.00 19 1017.3
20260507012056 21 299 4.8 16.1 0.00 0.00 0.00 17 1017.4
20260507011603 22 0 3.2 16.1 0.00 0.00 0.00 17 1017.3
20260507011054 22 288 4.8 17.7 0.00 0.00 0.00 16 1017.3
20260507010556 22 321 8.0 17.7 0.00 0.00 0.00 16 1017.3
20260507010112 22 325 8.0 17.7 0.00 0.00 0.00 16 1017.2
20260507005555 22 297 6.4 20.9 0.00 0.00 0.00 16 1017.2
20260507005058 22 352 6.4 20.9 0.00 0.00 0.00 16 1017.2
20260507004615 22 302 11.3 20.9 0.00 0.00 0.00 15 1017.1
20260507004054 23 289 4.8 20.9 0.00 0.00 0.00 16 1017.1
20260507003553 23 328 6.4 20.9 0.00 0.00 0.00 16 1017.1
20260507003103 23 340 1.6 19.3 0.00 0.00 0.00 17 1017.0
20260507002555 23 295 8.0 19.3 0.00 0.00 0.00 16 1017.0
20260507002055 23 319 4.8 14.5 0.00 0.00 0.00 17 1017.0
20260507001604 23 320 1.6 12.9 0.00 0.00 0.00 17 1016.9
20260507001051 23 337 0.0 11.3 0.00 0.00 0.00 16 1016.9
20260507000553 23 0 1.6 11.3 0.00 0.00 0.00 17 1016.9
20260507000057 23 0 3.2 11.3 0.00 0.00 0.00 16 1016.8
20260506235556 24 0 1.6 9.7 0.00 0.00 0.00 16 1016.8
20260506235054 23 0 1.6 12.9 0.00 0.00 0.00 16 1016.8
20260506234557 23 0 1.6 17.7 0.00 0.00 0.00 15 1016.7
20260506234058 23 0 4.8 17.7 0.00 0.00 0.00 15 1016.8
20260506233556 23 309 3.2 16.1 0.00 0.00 0.00 16 1016.8
20260506233058 23 282 9.7 19.3 0.00 0.00 0.00 15 1016.6
20260506232555 23 0 9.7 19.3 0.00 0.00 0.00 16 1016.6
20260506232055 23 295 3.2 14.5 0.00 0.00 0.00 14 1016.8
20260506231558 23 191 3.2 12.9 0.00 0.00 0.00 15 1016.8
20260506231056 23 0 1.6 16.1 0.00 0.00 0.00 17 1016.9
20260506230554 22 179 3.2 29.0 0.00 0.00 0.00 16 1016.8
20260506230059 23 0 14.5 29.0 0.00 0.00 0.00 15 1016.9
20260506225555 23 359 3.2 14.5 0.00 0.00 0.00 17 1016.3
20260506225052 23 0 4.8 11.3 0.00 0.00 0.00 17 1016.9
20260506224556 22 0 0.0 11.3 0.00 0.00 0.00 16 1016.9
20260506224055 22 0 4.8 11.3 0.00 0.00 0.00 16 1017.1
20260506223555 23 0 1.6 11.3 0.00 0.00 0.00 18 1017.3
20260506223100 23 0 0.0 6.4 0.00 0.00 0.00 17 1017.2
20260506222553 22 0 0.0 11.3 0.00 0.00 0.00 19 1017.3
20260506222056 22 0 0.0 11.3 0.00 0.00 0.00 18 1017.3
20260506221559 22 140 0.0 9.7 0.00 0.00 0.00 18 1017.3
20260506221054 22 22 0.0 11.3 0.00 0.00 0.00 19 1017.4
20260506220555 22 0 6.4 16.1 0.00 0.00 0.00 19 1017.5
20260506220056 22 72 8.0 16.1 0.00 0.00 0.00 19 1017.5
20260506215555 22 0 1.6 11.3 0.00 0.00 0.00 20 1017.6
20260506215055 22 0 0.0 8.0 0.00 0.00 0.00 21 1017.7
20260506214604 22 0 0.0 11.3 0.00 0.00 0.00 20 1017.6
20260506214055 22 0 1.6 11.3 0.00 0.00 0.00 19 1017.7
20260506213554 22 0 0.0 9.7 0.00 0.00 0.00 21 1017.7
20260506213053 22 54 0.0 9.7 0.00 0.00 0.00 22 1017.8
20260506212554 21 0 3.2 14.5 0.00 0.00 0.00 23 1017.8
20260506212054 21 0 0.0 16.1 0.00 0.00 0.00 22 1017.8
20260506211603 21 26 3.2 16.1 0.00 0.00 0.00 23 1017.8
20260506211055 21 25 0.0 14.5 0.00 0.00 0.00 25 1017.9
20260506210553 21 0 0.0 14.5 0.00 0.00 0.00 23 1017.9
20260506210056 21 340 1.6 14.5 0.00 0.00 0.00 23 1018.0
20260506205555 21 0 1.6 14.5 0.00 0.00 0.00 25 1018.1
20260506205054 21 332 4.8 25.7 0.00 0.00 0.00 25 1018.2
20260506204600 21 0 3.2 25.7 0.00 0.00 0.00 25 1018.2
20260506204052 21 360 11.3 25.7 0.00 0.00 0.00 25 1018.2
20260506203551 20 1 1.6 11.3 0.00 0.00 0.00 28 1018.2
20260506203059 20 0 0.0 11.3 0.00 0.00 0.00 25 1018.2
20260506202555 21 0 3.2 11.3 0.00 0.00 0.00 25 1018.3
20260506202055 20 0 0.0 17.7 0.00 0.00 0.00 26 1018.4
20260506201552 20 0 1.6 17.7 0.00 0.00 0.00 26 1018.4
20260506201052 21 359 6.4 14.5 0.00 0.00 0.00 27 1018.4
20260506200555 20 360 3.2 14.5 0.00 0.00 0.00 25 1018.4
20260506200103 20 0 8.0 14.5 0.00 0.00 0.00 25 1018.5
20260506195556 21 359 0.0 12.9 0.00 0.00 0.00 25 1018.5
20260506195055 21 169 1.6 12.9 0.00 0.00 0.00 26 1018.5
20260506194606 20 0 0.0 4.8 0.00 0.00 0.00 28 1018.6
20260506194051 20 0 0.0 11.3 0.00 0.00 0.00 28 1018.7
20260506193553 20 0 3.2 11.3 0.00 0.00 0.00 26 1018.8
20260506193059 20 352 6.4 11.3 0.00 0.00 0.00 27 1018.8
20260506192554 20 332 1.6 14.5 0.00 0.00 0.00 28 1018.8
20260506192054 19 353 4.8 17.7 0.00 0.00 0.00 29 1018.9
20260506191607 19 0 6.4 17.7 0.00 0.00 0.00 29 1019.0
20260506191054 19 1 8.0 14.5 0.00 0.00 0.00 30 1019.0
20260506190555 19 0 0.0 12.9 0.00 0.00 0.00 29 1019.1
20260506190059 18 9 3.2 17.7 0.00 0.00 0.00 30 1019.1
20260506185552 18 0 4.8 17.7 0.00 0.00 0.00 29 1019.2
20260506185055 18 15 4.8 17.7 0.00 0.00 0.00 32 1019.0
20260506184558 18 360 4.8 11.3 0.00 0.00 0.00 34 1019.1
20260506184056 18 0 0.0 12.9 0.00 0.00 0.00 35 1019.1
20260506183555 18 0 1.6 12.9 0.00 0.00 0.00 35 1019.2
20260506183123 18 357 8.0 12.9 0.00 0.00 0.00 35 1019.2
20260506182554 18 360 3.2 8.0 0.00 0.00 0.00 35 1019.3
20260506182054 18 0 3.2 9.7 0.00 0.00 0.00 35 1019.3
20260506181602 18 22 3.2 12.9 0.00 0.00 0.00 36 1019.3
20260506181056 18 39 1.6 12.9 0.00 0.00 0.00 36 1019.6
20260506180552 18 146 3.2 11.3 0.00 0.00 0.00 36 1019.5
20260506180115 17 117 1.6 12.9 0.00 0.00 0.00 37 1019.5
20260506175555 17 0 4.8 12.9 0.00 0.00 0.00 38 1019.5
20260506175053 17 0 4.8 12.9 0.00 0.00 0.00 39 1019.5
20260506174557 17 0 3.2 12.9 0.00 0.00 0.00 37 1019.4
20260506174053 17 19 1.6 8.0 0.00 0.00 0.00 38 1019.3
20260506173555 17 0 0.0 11.3 0.00 0.00 0.00 38 1019.5
20260506173126 16 0 0.0 11.3 0.00 0.00 0.00 38 1019.5
20260506172552 16 0 1.6 12.9 0.00 0.00 0.00 39 1019.5
20260506172053 16 0 3.2 12.9 0.00 0.00 0.00 40 1019.5
20260506171557 16 1 3.2 11.3 0.00 0.00 0.00 39 1019.5
20260506171056 16 0 1.6 11.3 0.00 0.00 0.00 40 1019.4
20260506170554 16 0 0.0 0.0 0.00 0.00 0.00 38 1019.5
20260506170057 16 0 0.0 9.7 0.00 0.00 0.00 40 1019.5
20260506165554 16 0 1.6 9.7 0.00 0.00 0.00 39 1019.4
20260506165056 16 0 1.6 9.7 0.00 0.00 0.00 39 1019.3
20260506164558 16 0 3.2 12.9 0.00 0.00 0.00 41 1019.3
20260506164053 16 59 6.4 12.9 0.00 0.00 0.00 41 1019.3
20260506163554 15 33 0.0 8.0 0.00 0.00 0.00 42 1019.3
20260506163106 15 0 0.0 8.0 0.00 0.00 0.00 42 1019.3
20260506162558 15 0 0.0 9.7 0.00 0.00 0.00 42 1019.3
20260506162054 15 0 0.0 11.3 0.00 0.00 0.00 43 1019.1
20260506161558 15 0 0.0 11.3 0.00 0.00 0.00 43 1019.2
20260506161054 15 8 6.4 11.3 0.00 0.00 0.00 43 1019.1
20260506160557 15 0 0.0 11.3 0.00 0.00 0.00 44 1019.1
20260506160103 15 19 1.6 11.3 0.00 0.00 0.00 44 1019.1
20260506155556 15 29 1.6 12.9 0.00 0.00 0.00 43 1019.1
20260506155056 14 0 1.6 12.9 0.00 0.00 0.00 45 1019.1
20260506154557 14 20 1.6 9.7 0.00 0.00 0.00 44 1019.1
20260506154054 14 7 0.0 11.3 0.00 0.00 0.00 48 1019.1
20260506153601 14 354 1.6 11.3 0.00 0.00 0.00 47 1019.2
20260506153058 14 0 1.6 9.7 0.00 0.00 0.00 48 1019.3
20260506152554 14 359 0.0 8.0 0.00 0.00 0.00 48 1019.2
20260506152056 13 0 0.0 8.0 0.00 0.00 0.00 50 1019.1
20260506151554 13 0 0.0 0.0 0.00 0.00 0.00 51 1019.3
20260506151054 13 0 0.0 0.0 0.00 0.00 0.00 53 1019.3
20260506150557 13 0 0.0 1.6 0.00 0.00 0.00 54 1019.3
20260506150100 13 0 0.0 1.6 0.00 0.00 0.00 55 1019.4
20260506145553 13 0 0.0 0.0 0.00 0.00 0.00 56 1019.3
20260506145056 12 0 0.0 6.4 0.00 0.00 0.00 57 1019.2
20260506144607 12 0 0.0 6.4 0.00 0.00 0.00 57 1019.2
20260506144056 12 0 0.0 6.4 0.00 0.00 0.00 57 1019.2
20260506143557 12 0 0.0 6.4 0.00 0.00 0.00 58 1019.3
20260506143059 12 0 0.0 6.4 0.00 0.00 0.00 61 1019.2
20260506142556 12 0 0.0 6.4 0.00 0.00 0.00 62 1019.2
20260506142054 12 0 0.0 8.0 0.00 0.00 0.00 60 1019.2
20260506141600 12 0 1.6 8.0 0.00 0.00 0.00 56 1019.3
20260506141054 12 1 1.6 8.0 0.00 0.00 0.00 56 1019.2
20260506140554 12 0 0.0 0.0 0.00 0.00 0.00 56 1019.1
20260506140055 11 0 0.0 0.0 0.00 0.00 0.00 57 1018.9
20260506135553 11 0 0.0 0.0 0.00 0.00 0.00 62 1018.9
20260506135056 10 0 0.0 0.0 0.00 0.00 0.00 65 1018.9
20260506134555 10 0 0.0 0.0 0.00 0.00 0.00 68 1018.9
20260506134054 10 0 0.0 0.0 0.00 0.00 0.00 71 1018.9
20260506133554 9 0 0.0 0.0 0.00 0.00 0.00 73 1018.9
20260506133101 8 0 0.0 0.0 0.00 0.00 0.00 75 1018.8
20260506132552 8 0 0.0 0.0 0.00 0.00 0.00 77 1018.8
20260506132056 8 0 0.0 0.0 0.00 0.00 0.00 77 1018.9
20260506131554 7 0 0.0 0.0 0.00 0.00 0.00 78 1018.8
20260506131053 7 0 0.0 0.0 0.00 0.00 0.00 78 1018.8
20260506130554 7 0 0.0 0.0 0.00 0.00 0.00 79 1018.7
20260506130053 7 0 0.0 0.0 0.00 0.00 0.00 78 1018.6
20260506125553 7 0 0.0 0.0 0.00 0.03 0.00 78 1018.6
20260506125053 7 0 0.0 0.0 0.00 0.03 0.00 78 1018.5
20260506124552 6 0 0.0 0.0 0.00 0.03 0.00 79 1018.4
20260506124057 6 0 0.0 0.0 0.00 0.03 0.00 79 1018.4
20260506123554 6 0 0.0 0.0 0.00 0.03 0.00 79 1018.3
20260506123056 6 0 0.0 0.0 0.00 0.03 0.00 80 1018.2
20260506122555 6 0 0.0 0.0 0.00 0.03 0.00 81 1018.0
20260506122057 6 0 0.0 0.0 0.00 0.03 0.00 81 1018.0
20260506121556 6 0 0.0 0.0 0.00 0.03 0.00 80 1017.9
20260506121054 6 0 0.0 0.0 0.00 0.03 0.00 80 1017.7
20260506120551 6 0 0.0 8.0 0.00 0.03 0.00 79 1017.7
20260506120055 6 0 0.0 8.0 0.00 0.03 0.00 80 1017.7
20260506115558 6 236 4.8 8.0 0.00 0.05 0.00 81 1017.6
20260506115051 6 0 0.0 0.0 0.00 0.05 0.00 81 1017.6
20260506114555 6 0 0.0 0.0 0.00 0.05 0.00 81 1017.7
20260506114053 6 0 0.0 0.0 0.00 0.05 0.00 81 1017.7
20260506113557 6 0 0.0 6.4 0.00 0.05 0.00 81 1017.8
20260506113057 6 0 0.0 6.4 0.00 0.05 0.00 80 1017.7
20260506112554 6 239 0.0 4.8 0.00 0.05 0.00 80 1017.7
20260506112054 6 0 0.0 4.8 0.00 0.05 0.00 81 1017.7
20260506111558 6 0 0.0 0.0 0.00 0.05 0.00 81 1017.7
20260506111058 6 0 0.0 0.0 0.00 0.05 0.00 80 1017.6
20260506110554 6 0 0.0 0.0 0.00 0.05 0.00 80 1017.7
20260506110055 6 0 0.0 0.0 0.00 0.05 0.00 79 1017.7
20260506105554 7 0 0.0 0.0 0.00 0.10 0.00 78 1017.7
20260506105058 7 0 0.0 0.0 0.00 0.10 0.00 77 1017.7
20260506104600 7 0 0.0 0.0 0.00 0.10 0.00 77 1017.7
20260506104057 7 0 0.0 0.0 0.00 0.10 0.00 76 1017.6
20260506103556 7 0 0.0 0.0 0.00 0.10 0.00 75 1017.6
20260506103057 8 0 0.0 0.0 0.00 0.10 0.00 75 1017.6
20260506102556 8 0 0.0 0.0 0.00 0.10 0.00 74 1017.5
20260506102055 8 0 0.0 0.0 0.00 0.10 0.00 74 1017.6
20260506101556 8 0 0.0 0.0 0.00 0.10 0.00 74 1017.6
20260506101057 8 0 0.0 0.0 0.00 0.10 0.00 74 1017.6
20260506100554 8 0 0.0 0.0 0.00 0.10 0.00 74 1017.6
20260506095556 9 0 0.0 0.0 0.00 0.10 0.00 73 1017.5
20260506095055 9 0 0.0 0.0 0.00 0.10 0.00 73 1017.5
20260506094611 9 0 0.0 0.0 0.00 0.10 0.00 72 1017.5
20260506094057 9 0 0.0 0.0 0.00 0.10 0.00 73 1017.6
20260506093557 9 0 0.0 0.0 0.00 0.10 0.00 73 1017.6
20260506093102 9 0 0.0 0.0 0.00 0.10 0.00 73 1017.6